Flag for Austria Weather past 2 weeks in Mattersburg, Burgenland, Austria

Now
77 °F

Mild.


Feels Like: 78 °F
Forecast: 59 / 74 °F
Wind: 3 mph from Southeast

Location: Eisenstadt

Current Time: Aug 29, 2014 at 4:13:39 PM

Latest Report: Aug 29, 2014 at 3:00 PM


Visibility: N/A

Pressure: 30.02 "Hg

Humidity: 47%

Dew point: 55 °F

Location of MattersburgLocation

Historic Weather in Mattersburg — Graph

°F

Mattersburg temperature yesterday

Maximum temperature yesterday: 72 °F (at 4:00 PM)
Minimum temperature yesterday: 53 °F (at 1:00 AM)
Average temperature yesterday: 62 °F

Past Weeks' High & Low Weather Summary

 TemperatureHumidityPressure
High78 °F (Aug 18, 3:00 PM)95% (Aug 15, 9:00 PM)30.13 "Hg (Aug 15, 9:00 PM)
Low49 °F (Aug 25, 5:00 AM)40% (Aug 28, 3:00 PM)29.72 "Hg (Aug 27, 4:00 AM)
Average62 °F73%29.96 "Hg
* Reported Aug 14 2:00 PM — Aug 29 2:00 PM, Mattersburg, Weather by CustomWeather, © 2014

Note: Actual official high and low records may vary slightly from our data, if they occured in-between our weather recording intervals... More about our weather records

Advertising

Mattersburg weather history for previous 24 hours

 ConditionsComfort  
Time TempWeatherWind HumidityBarometerVisibility
2:00 PM
Aug 29
76 °FScattered clouds.3 mph52%30.03 "Hg12 mi
1:00 PM72 °FMild.2 mph58%30.05 "HgN/A
12:00 PM69 °FMild.2 mph64%30.07 "HgN/A
11:00 AM66 °FPassing clouds.2 mph68%30.09 "Hg12 mi
10:00 AM62 °FCool.1 mph74%30.10 "HgN/A
9:00 AM60 °FCool.1 mph78%30.10 "HgN/A
8:00 AM57 °FSunny.1 mph82%30.10 "Hg12 mi
7:00 AM51 °FPassing clouds.1 mph93%30.11 "Hg12 mi
6:00 AM51 °FPassing clouds.2 mph93%30.10 "Hg12 mi
5:00 AM52 °FClear.3 mph93%30.10 "Hg12 mi
4:00 AM53 °FClear.3 mph91%30.09 "Hg12 mi
3:00 AM53 °FCool.2 mph91%30.10 "HgN/A
2:00 AM54 °FClear.2 mph89%30.10 "Hg12 mi
1:00 AM54 °FCool.2 mph88%30.10 "HgN/A
12:00 AM55 °FCool.2 mph87%30.10 "HgN/A
11:00 PM
Aug 28
56 °FCool.2 mph87%30.10 "HgN/A
10:00 PM56 °FCool.3 mph84%30.09 "HgN/A
9:00 PM58 °FCool.3 mph81%30.09 "HgN/A
8:00 PM60 °FClear.2 mph78%30.07 "Hg12 mi
7:00 PM69 °FSunny.2 mph49%30.06 "Hg12 mi
6:00 PM71 °FMild.3 mph45%30.06 "HgN/A
5:00 PM72 °FPassing clouds.3 mph45%30.06 "Hg12 mi
4:00 PM72 °FMild.5 mph44%30.06 "HgN/A
Weather by CustomWeather, © 2014

See weather overviewHow to use our weather pages